Hurricane Symbol View the latest observations near Atlantic Remnants Of Alberto.

Station KEXA2 - Ketchikan Harbor, AK Image indicating link to RSS feed of recent meteorological observations for station KEXA2


Conditions at KEXA2 as of
(2:32 pm AKDT)
2232 GMT on 06/20/2024:
     

Click on the graph icon in the table below to see a time series plot of the last five days of that observation.

5-day plot - Wind Direction Wind Direction (WDIR): SE ( 140 deg true )
5-day plot - Wind Speed Wind Speed (WSPD): 9 kts
5-day plot - Wind Gust Wind Gust (GST): 12 kts
5-day plot - Air Temperature Air Temperature (ATMP): 62.2 °F
5-day plot - Wind Speed at 10 Meters Wind Speed at 10 meters (WSPD10M): 10 kts
5-day plot - Wind Speed at 20 Meters Wind Speed at 20 meters (WSPD20M): 10 kts
5-day plot -  Wind Speed, Wind Gust and Atmospheric Pressure Combined plot of Wind Speed, Gust, and Air Pressure
Previous observations
TIME
(AKDT)
5-day plot - Wind Direction
WDIR
 
5-day plot - Wind Speed
WSPD
kts
5-day plot - Wind Gust
GST
kts
5-day plot - Wave Height
WVHT
ft
5-day plot - Dominant Wave Period
DPD
sec
5-day plot - Average Wave Period
APD
sec
5-day plot - Mean Wave Direction
MWD
 
5-day plot - Atmospheric Pressure
PRES
in
5-day plot - Pressure Tendency
PTDY
in
5-day plot - Air Temperature
ATMP
°F
5-day plot - Water Temperature
WTMP
°F
5-day plot - Dew Point
DEWP
°F
5-day plot - Salinity
SAL
psu
5-day plot - Visibility
VIS
nmi
5-day plot - Tide (above MLLW)
TIDE
ft
2024-06-20 02:22 pm SE 9 12------ 62.1-----
2024-06-20 02:12 pm SE 9 12------ 61.9-----
2024-06-20 02:02 pm SE 7 14------ 62.1-----
2024-06-20 01:52 pm SE 9 12------ 61.5-----
2024-06-20 01:42 pm SE 10 13------ 61.2-----
2024-06-20 01:32 pm SE 9 14------ 61.3-----
2024-06-20 01:22 pm SE 8 11------ 61.3-----
2024-06-20 01:12 pm SE 8 12------ 61.2-----
2024-06-20 01:02 pmSSE 8 11------ 61.5-----
2024-06-20 12:52 pm SE 8 12------ 61.7-----
2024-06-20 12:42 pm SE 8 14------ 61.5-----
2024-06-20 12:32 pm SE 9 12------ 60.8-----
2024-06-20 12:22 pm SE 8 11------ 60.8-----
2024-06-20 12:12 pm SE 8 12------ 60.8-----
2024-06-20 12:02 pm SE 8 12------ 60.6-----
2024-06-20 11:52 am SE 8 10------ 60.8-----
2024-06-20 11:42 am SE 8 11------ 60.8-----
2024-06-20 11:32 am SE 8 11------ 60.6-----
2024-06-20 11:22 am SE 8 11------ 59.7-----
2024-06-20 11:12 amSSE 8 11------ 59.2-----
2024-06-20 11:02 am SE 7 9------ 59.7-----
2024-06-20 10:52 am SE 7 9------ 59.2-----
2024-06-20 10:42 amSSE 6 7------ 58.5-----
2024-06-20 10:32 amSSE 6 9------ 57.7-----
2024-06-20 10:22 amSSE 6 7------ 57.4-----
2024-06-20 10:12 amSSE 6 10------ 57.0-----
2024-06-20 10:02 amSSE 6 8------ 56.3-----
2024-06-20 09:52 amSSE 6 9------ 55.9-----
2024-06-20 09:42 amSSE 5 8------ 55.4-----
2024-06-20 09:32 am S 5 7------ 55.2-----
2024-06-20 09:22 am S 5 7------ 54.5-----
2024-06-20 09:12 am S 4 7------ 54.7-----
2024-06-20 09:02 am S 4 7------ 54.5-----
2024-06-20 08:52 amSSE 5 7------ 54.1-----
2024-06-20 08:42 amSSE 6 8------ 54.0-----
2024-06-20 08:32 amSSE 6 8------ 53.8-----
2024-06-20 08:22 amSSE 6 9------ 53.8-----
2024-06-20 08:12 am S 4 8------ 54.0-----
2024-06-20 08:02 amSSE 4 6------ 54.0-----
2024-06-20 07:52 amSSE 3 4------ 54.0-----
2024-06-20 07:42 am S 2 4------ 53.6-----
2024-06-20 07:32 am S 3 5------ 53.4-----
2024-06-20 07:22 amSSE 3 5------ 53.6-----
2024-06-20 07:12 am SE 3 6------ 53.6-----
2024-06-20 07:02 am S 2 4------ 53.6-----
2024-06-20 06:52 am S 2 4------ 53.6-----
2024-06-20 06:42 am SE 3 6------ 53.4-----
2024-06-20 06:32 amESE 3 6------ 53.2-----
2024-06-20 06:22 am SE 4 8------ 52.9-----
2024-06-20 06:12 am S 4 7------ 52.9-----
2024-06-20 06:02 am SE 3 6------ 53.1-----
2024-06-20 05:52 am SE 3 5------ 52.9-----
2024-06-20 05:42 am S 3 5------ 52.9-----
2024-06-20 05:32 am SE 3 6------ 52.9-----
2024-06-20 05:22 am S 2 4------ 52.9-----
2024-06-20 05:12 amSSE 3 4------ 52.9-----
2024-06-20 05:02 am SE 3 4------ 53.1-----
2024-06-20 04:52 am E 2 5------ 52.9-----
2024-06-20 04:42 am E 2 5------ 52.7-----
2024-06-20 04:32 amSSE 2 6------ 52.5-----
2024-06-20 04:22 am S 1 3------ 52.7-----
2024-06-20 04:12 amSSE 2 2------ 52.7-----
2024-06-20 04:02 am- 0 2------ 52.5-----
2024-06-20 03:52 am- 0 2------ 52.5-----
2024-06-20 03:42 am- 0 2------ 52.5-----
2024-06-20 03:32 am- 0 2------ 52.5-----
2024-06-20 03:22 amWSW 1 3------ 52.5-----
2024-06-20 03:12 am- 0 2------ 52.3-----
2024-06-20 03:02 am- 0 2------ 52.0-----
2024-06-20 02:52 am- 0 1------ 51.8-----
2024-06-20 02:42 am- 0 2------ 51.6-----
2024-06-20 02:32 am- 0 2------ 51.8-----
2024-06-20 02:22 amNNE 1 3------ 51.8-----
2024-06-20 02:12 amNNW 1 3------ 51.8-----
2024-06-20 02:02 am W 1 2------ 51.8-----
2024-06-20 01:52 am- 0 2------ 52.0-----
2024-06-20 01:42 amWSW 1 2------ 52.2-----
2024-06-20 01:32 am- 0 1------ 52.3-----
2024-06-20 01:22 am- 0 1------ 52.5-----
2024-06-20 01:12 am- 0 2------ 52.5-----
2024-06-20 01:02 am- 0 1------ 52.5-----
2024-06-20 12:52 am- 0 2------ 52.7-----
2024-06-20 12:42 am- 0 2------ 53.1-----
2024-06-20 12:32 am- 0 2------ 53.2-----
2024-06-20 12:22 am- 0 1------ 53.4-----
2024-06-20 12:12 am- 0 2------ 53.8-----
2024-06-20 12:02 am- 0 2------ 53.8-----
2024-06-19 11:52 pm- 0 2------ 54.0-----
2024-06-19 11:42 pmSSW 1 2------ 54.1-----
2024-06-19 11:32 pmSSE 2 4------ 54.5-----
2024-06-19 11:22 pmSSE 3 5------ 54.5-----
2024-06-19 11:12 pmSSE 3 5------ 54.7-----
2024-06-19 11:02 pmSSE 3 5------ 54.7-----
2024-06-19 10:52 pmSSE 3 5------ 54.9-----
2024-06-19 10:42 pmSSE 4 6------ 55.0-----
2024-06-19 10:32 pm SE 5 8------ 55.2-----
2024-06-19 10:22 pm SE 5 7------ 55.2-----
2024-06-19 10:12 pmSSE 4 6------ 55.2-----
2024-06-19 10:02 pm SE 5 8------ 55.6-----
2024-06-19 09:52 pm SE 5 7------ 55.8-----
2024-06-19 09:42 pmSSE 4 6------ 55.9-----
2024-06-19 09:32 pm SE 6 8------ 56.3-----
2024-06-19 09:22 pm SE 5 8------ 56.8-----
2024-06-19 09:12 pm SE 5 8------ 57.0-----
2024-06-19 09:02 pm SE 6 10------ 57.4-----
2024-06-19 08:52 pm SE 6 9------ 58.1-----
2024-06-19 08:42 pmSSE 6 9------ 58.3-----
2024-06-19 08:32 pmSSE 6 10------ 58.3-----
2024-06-19 08:22 pmSSE 7 9------ 59.4-----
2024-06-19 08:12 pm SE 6 9------ 61.3-----
2024-06-19 08:02 pm SE 5 8------ 61.9-----
2024-06-19 07:52 pm SE 6 8------ 61.3-----
2024-06-19 07:42 pm SE 6 9------ 61.2-----
2024-06-19 07:32 pmSSE 7 9------ 61.0-----
2024-06-19 07:22 pm SE 7 9------ 61.2-----
2024-06-19 07:12 pm SE 7 10------ 61.5-----
2024-06-19 07:02 pm SE 7 10------ 61.5-----
2024-06-19 06:52 pm SE 8 13------ 61.7-----
2024-06-19 06:42 pm SE 7 12------ 62.1-----
2024-06-19 06:32 pm SE 8 12------ 61.3-----
2024-06-19 06:22 pm SE 10 13------ 61.2-----
2024-06-19 06:12 pm SE 8 13------ 61.7-----
2024-06-19 06:02 pm SE 8 10------ 61.5-----
2024-06-19 05:52 pm SE 8 11------ 61.3-----
2024-06-19 05:42 pm SE 8 11------ 61.3-----
2024-06-19 05:32 pm SE 8 11------ 61.2-----
2024-06-19 05:22 pm SE 8 11------ 61.2-----
2024-06-19 05:12 pm SE 8 11------ 61.5-----
2024-06-19 05:02 pm SE 8 10------ 61.5-----
2024-06-19 04:52 pm SE 8 11------ 61.3-----
2024-06-19 04:42 pm SE 9 11------ 61.3-----
2024-06-19 04:32 pm SE 8 11------ 61.5-----
2024-06-19 04:22 pm SE 8 10------ 61.7-----
2024-06-19 04:12 pm SE 8 10------ 61.5-----
2024-06-19 03:52 pm SE 8 11------ 61.5-----
2024-06-19 03:42 pm SE 8 12------ 61.2-----
2024-06-19 03:32 pm SE 8 11------ 60.8-----
2024-06-19 03:22 pm SE 8 10------ 60.6-----
2024-06-19 03:12 pm SE 7 9------ 60.4-----
2024-06-19 03:02 pm SE 8 10------ 59.9-----
2024-06-19 02:52 pm SE 8 10------ 59.5-----
2024-06-19 02:42 pm SE 9 12------ 59.2-----
2024-06-19 02:32 pm SE 10 14------ 58.8-----
2024-06-19 02:22 pm SE 9 12------ 59.0-----
2024-06-19 02:12 pm SE 7 10------ 59.0-----
2024-06-19 02:02 pm SE 8 11------ 58.8-----
2024-06-19 01:52 pm SE 8 10------ 58.8-----